Location: Narrabri
(30.3170°S, 149.7830°E)
Time: 18:05:45
(UTC+10:00)

Vanguard 1 - Visible Passes

Search period start: 23 July 2018 00:00
Search period end: 02 August 2018 00:00
Orbit: 650 x 3833 km, 34.2° (Epoch: 22 July)

Date Brightness Start Highest point End Pass type
(mag) Time Alt. Az. Time Alt. Az. Time Alt. Az.
23 Jul 13.4 06:10:09 10° N 06:18:48 26° NE 06:31:51 10° E visible
23 Jul 13.9 18:13:14 10° W 18:25:49 20° NW 18:35:19 10° NNW visible
24 Jul 14.1 18:39:23 10° WNW 18:46:08 13° WNW 18:51:55 10° NW visible
26 Jul 13.4 04:55:53 10° NNE 05:00:31 14° ENE 05:06:21 10° E visible
27 Jul 13.0 05:13:59 10° N 05:20:41 22° NE 05:30:33 10° E visible
28 Jul 12.8 05:33:18 10° NNW 05:40:55 32° NE 05:53:28 10° ESE visible
28 Jul 14.4 17:37:08 10° W 17:46:56 15° NW 17:55:21 10° NNW visible
29 Jul 12.6 05:53:11 10° NNW 06:01:20 43° NE 06:15:50 10° ESE visible
30 Jul 13.1 04:01:31 10° NE 04:02:55 10° ENE 04:04:26 10° ENE visible
30 Jul 12.2 06:13:26 10° NW 06:21:59 56° NE 06:37:55 10° ESE visible
31 Jul 12.7 04:18:10 10° NNE 04:23:05 18° NE 04:29:53 10° E visible
01 Aug 12.4 04:37:20 10° N 04:43:20 28° NE 04:52:49 10° E visible
